Theta_e
311 311 310 311 312 312 314 315 316 315 315 316 316 316 317 318 318 316 318 318 312 306 306 308 308 306 307 308 305 309 308 310 308 303 301 301 300 302 302 303 303 303 299 299 300 298 296 316 313 305 310 311 315 319
311 310 310 311 311 313 314 315 315 315 315 315 315 315 316 317 317 317 311 318 317 307 305 311 311 312 311 311 308 309 309 309 311 306 307 306 302 304 301 297 307 300 304 301 304 303 312 317 313 319 319 314 312 322
310 310 310 311 311 311 313 314 314 314 314 314 314 314 315 316 317 316 314 315 311 305 305 306 307 313 315 314 316 305 310 313 313 314 310 308 303 309 303 304 307 310 312 305 304 310 312 314 316 319 319 317 317 323
310 309 310 310 310 311 312 313 313 313 313 313 313 314 314 314 314 315 312 315 311 307 299 301 312 308 313 312 313 315 312 314 313 312 308 306 302 311 305 306 305 310 312 309 306 311 315 315 317 317 319 321 318 319
309 309 310 310 310 310 310 312 313 313 313 313 312 313 313 313 313 312 315 315 314 305 298 300 306 309 312 311 312 315 313 311 310 308 305 303 309 308 308 307 305 312 311 308 306 314 314 315 323 323 319 320 321 320
309 309 309 309 310 311 311 311 311 313 312 312 312 312 312 313 312 310 304 311 312 313 302 294 306 305 310 314 314 314 314 312 312 308 307 308 311 308 303 302 313 318 319 318 314 321 319 319 324 321 321 321 322 323
309 308 309 309 309 310 311 311 312 312 312 312 312 312 312 311 309 306 303 308 311 312 301 296 298 311 312 313 311 311 313 312 312 308 307 307 307 310 306 300 309 314 314 314 315 318 318 320 317 320 321 323 321 324
308 308 308 308 309 310 310 311 312 312 312 312 312 312 311 311 309 305 311 310 312 306 303 295 297 303 310 308 307 314 309 311 310 307 308 305 308 308 302 308 311 313 314 314 315 316 321 321 320 320 323 322 320 321
308 308 308 308 309 309 310 311 312 312 312 312 312 311 310 307 306 309 313 312 312 305 297 298 296 296 310 308 309 310 310 303 310 304 305 307 303 299 305 308 311 311 311 311 313 315 320 319 317 320 321 321 319 320
308 308 308 308 308 309 310 310 311 312 311 311 309 306 304 308 315 314 308 302 301 302 301 296 302 298 306 305 304 304 308 303 298 303 308 302 301 308 313 313 316 316 317 316 312 314 316 317 320 319 320 321 322 323
308 307 307 307 307 308 309 309 310 311 311 310 306 305 314 315 310 304 300 297 298 296 299 301 303 300 308 300 301 306 303 304 297 302 301 302 300 306 311 313 313 314 318 319 319 320 321 320 320 321 320 321 324 324
307 307 307 307 307 307 308 309 310 309 309 305 304 308 310 308 304 298 297 300 298 296 302 300 302 302 304 311 303 305 301 303 298 309 302 298 305 315 313 314 315 316 318 319 320 320 320 321 324 322 324 324 325 327
307 307 307 307 307 307 307 309 309 311 309 311 305 302 302 302 293 295 293 296 296 302 304 304 301 305 306 306 303 302 298 299 307 302 301 307 314 319 321 322 319 317 320 320 320 322 324 325 326 326 324 325 325 322
307 307 307 307 307 307 308 309 310 310 306 303 300 290 298 297 300 300 302 302 307 304 304 305 302 303 306 303 305 299 304 303 297 297 301 309 314 317 320 320 324 322 321 320 319 320 321 324 325 326 325 325 323 321
307 307 307 306 307 307 309 310 310 309 306 300 302 292 298 303 305 306 308 308 310 310 307 305 304 306 304 301 302 300 299 298 300 301 307 313 316 319 310 317 321 324 323 322 322 319 320 323 323 324 325 325 325 324
306 306 304 307 309 310 310 309 309 311 307 302 301 298 302 301 302 305 304 306 311 310 310 308 303 302 300 301 299 298 299 297 302 307 311 314 317 319 319 315 313 316 327 322 320 321 322 321 322 325 324 326 327 327
305 303 310 310 310 309 309 307 307 302 300 300 299 304 303 303 301 304 306 307 313 308 306 307 301 301 308 303 302 305 300 304 307 309 312 314 317 320 324 321 318 325 326 326 328 328 325 324 325 324 324 323 328 329
302 309 309 309 309 310 310 307 304 300 296 299 297 300 304 306 305 305 308 308 310 309 309 306 309 303 302 300 302 307 308 309 312 311 312 318 323 325 325 326 326 325 325 326 326 321 323 323 322 321 321 321 324 329
305 306 308 308 308 306 302 303 305 296 298 301 303 304 305 305 307 308 309 311 316 314 311 308 305 303 303 307 308 310 310 308 308 314 315 323 326 325 325 326 325 324 323 322 322 322 322 321 319 321 321 323 321 324
306 307 307 308 307 304 299 301 308 300 298 303 304 302 304 305 307 307 308 310 309 308 307 306 306 307 308 312 315 315 316 316 315 314 314 321 324 325 326 323 323 325 324 324 323 311 321 319 318 321 323 321 318 321
305 307 308 308 307 304 302 302 300 301 302 301 305 305 304 308 306 306 307 311 307 305 304 308 310 313 318 316 320 321 318 319 318 317 315 314 320 319 323 325 325 323 318 319 315 315 314 319 320 321 324 321 320 326
309 309 309 308 303 304 302 305 302 307 303 302 302 304 302 301 303 305 310 306 306 308 310 310 313 314 314 314 322 323 325 323 324 321 312 315 317 319 319 316 319 319 318 318 318 317 319 319 319 320 321 320 319 321
307 307 307 304 300 297 296 307 301 303 297 300 305 302 303 303 308 315 307 309 310 320 323 323 323 326 323 325 325 325 326 325 321 322 321 319 319 320 319 318 319 318 318 319 321 319 318 315 319 319 322 320 321 320
306 302 300 299 299 294 303 301 304 301 301 299 299 298 302 305 310 307 302 307 316 318 320 321 320 319 322 324 321 321 324 324 322 322 322 320 317 317 319 317 316 319 321 321 321 322 322 322 315 322 322 322 321 319
294 293 296 288 299 297 296 297 298 298 296 299 299 300 302 308 303 303 304 309 313 315 316 319 319 318 315 320 321 323 325 324 320 318 319 321 318 317 316 320 323 323 324 322 321 321 322 323 323 322 321 321 320 320
288 296 291 297 298 297 297 295 297 298 299 299 299 305 306 302 299 299 304 310 313 314 316 315 314 314 315 319 318 319 322 325 324 319 319 321 318 317 320 319 319 319 323 323 321 320 320 320 320 320 320 320 309 320
289 294 299 304 301 301 299 302 303 300 298 298 303 302 301 298 299 306 313 317 315 315 314 314 316 318 317 318 321 323 322 324 324 324 323 323 323 324 323 321 319 321 324 321 323 323 320 319 318 319 320 321 321 321
297 299 296 300 301 301 297 298 298 299 303 306 305 301 299 300 303 312 312 316 316 314 314 319 324 320 319 320 316 315 320 324 323 321 321 321 323 324 325 324 325 308 323 319 320 325 324 323 322 322 322 322 321 324
297 300 300 296 298 298 298 298 299 307 307 306 303 302 304 309 314 314 314 314 315 319 318 318 319 322 321 322 321 319 322 321 320 317 317 316 318 319 322 323 325 324 324 321 302 309 318 319 320 323 325 324 325 326
297 301 297 297 296 295 299 303 304 306 308 308 310 311 312 313 316 317 315 316 318 317 318 321 319 321 319 318 318 320 323 323 323 321 318 317 318 322 324 323 321 324 324 322 322 323 311 319 317 324 323 323 323 323
301 301 298 298 298 302 304 306 306 308 307 305 308 307 307 310 313 317 318 318 318 318 320 318 318 321 318 318 319 318 317 323 326 324 325 323 322 323 323 323 322 322 322 322 322 321 320 319 319 319 319 319 318 317
300 298 297 297 299 305 307 304 307 308 308 308 307 309 308 310 307 317 321 321 320 316 312 318 319 318 324 323 322 322 310 323 322 323 323 323 321 322 324 324 323 323 322 322 321 321 318 318 317 317 317 317 316 315
300 301 301 301 301 303 307 306 304 304 306 306 308 310 310 308 308 315 322 326 321 317 317 318 322 325 324 319 319 317 312 313 302 297 297 297 297 306 318 322 322 322 320 315 314 315 315 316 314 314 315 315 315 315
Wind_Speed
8 9 10 11 11 13 12 12 11 11 11 12 14 14 15 14 14 2 4 1 2 3 9 14 15 13 10 8 5 9 8 5 3 4 4 5 3 5 4 4 6 7 6 5 3 4 7 7 7 8 7 2 8 10
8 9 10 10 10 11 12 11 9 9 11 12 12 13 13 12 11 4 3 1 1 4 6 16 20 19 18 18 10 6 6 5 3 4 6 4 3 4 5 6 6 5 6 6 9 9 9 1 18 6 8 7 6 13
8 9 9 10 10 10 11 10 10 10 11 12 12 13 13 13 12 4 3 1 1 3 8 8 8 9 13 19 14 7 4 5 1 5 5 3 3 5 3 5 8 9 6 5 4 4 6 12 13 10 9 8 8 12
8 9 9 9 9 9 10 10 10 10 10 12 12 13 12 11 12 9 2 1 2 3 5 6 9 12 16 15 15 14 16 12 9 4 4 3 1 4 3 3 1 4 12 7 4 6 3 6 11 6 8 8 8 9
8 8 9 9 9 10 10 10 10 10 10 11 12 12 12 11 11 7 4 3 3 2 4 9 19 22 13 14 15 10 11 8 5 1 2 3 3 2 2 1 4 0 2 3 4 9 5 6 2 12 8 10 10 8
8 9 9 9 10 10 11 10 11 11 10 11 11 12 12 10 9 4 2 3 3 2 3 4 8 15 15 8 14 12 7 4 2 1 2 3 1 3 3 3 3 3 5 2 6 17 4 8 7 7 3 11 9 12
8 9 9 10 10 12 10 10 11 11 10 11 11 11 11 9 5 3 3 1 2 0 2 4 6 2 10 6 6 3 3 3 2 2 5 4 2 5 3 5 4 7 9 9 5 19 9 8 4 15 10 9 12 11
8 9 9 9 10 11 11 11 12 11 11 12 12 12 11 10 9 5 1 7 6 2 2 4 6 4 8 4 3 4 1 3 3 4 2 4 3 3 5 8 11 4 9 15 12 12 9 11 19 14 26 9 11 11
9 9 9 9 10 10 11 12 12 12 13 14 15 17 4 2 2 1 3 6 1 1 2 3 4 4 4 3 3 1 2 3 3 3 4 4 5 8 8 10 9 9 6 8 17 16 11 13 21 29 20 8 10 9
9 9 9 9 10 10 10 11 13 14 16 15 6 3 2 3 7 5 3 2 3 3 3 4 5 5 2 3 3 3 2 2 2 5 5 6 11 11 8 10 8 13 15 18 12 15 16 30 31 9 4 7 9 9
9 9 8 9 10 10 10 11 12 14 13 1 2 2 2 9 3 2 2 3 3 4 4 4 4 5 3 2 2 3 3 3 4 5 6 5 5 14 19 18 18 15 16 22 22 12 19 13 7 6 2 14 13 17
9 9 8 8 9 11 11 10 11 6 1 4 5 6 4 3 3 4 3 3 4 3 3 3 3 3 3 1 1 2 3 3 4 3 4 4 5 7 12 16 18 18 17 15 13 11 14 12 9 4 9 7 8 12
9 8 9 9 10 11 11 10 9 10 11 3 3 4 3 4 3 5 4 3 2 3 4 3 3 2 2 2 3 2 5 5 7 3 4 1 5 8 5 4 6 17 12 15 11 6 8 10 7 7 12 9 13 14
9 9 9 10 12 12 11 9 10 7 4 4 4 4 5 5 5 2 3 2 2 4 3 2 2 2 2 2 1 4 3 4 2 4 2 1 5 7 11 13 9 6 13 11 9 7 7 3 8 9 13 13 14 12
8 9 10 12 15 14 11 9 6 4 3 4 4 4 6 2 5 5 3 1 3 4 3 3 3 4 3 1 1 3 4 5 3 4 4 6 5 7 6 9 15 6 6 6 6 6 5 3 2 9 9 8 8 10
6 9 8 9 7 3 3 5 4 3 3 4 6 6 7 7 6 4 1 5 2 4 3 1 3 3 5 4 7 7 3 1 2 2 5 8 5 3 10 3 13 14 6 4 3 3 1 3 3 2 5 12 10 11
3 4 5 6 4 3 3 3 2 4 4 5 6 7 7 6 7 3 5 3 1 5 2 2 4 3 4 3 1 3 1 6 4 4 6 9 7 3 3 8 12 6 9 9 9 10 7 4 4 6 2 1 13 14
4 2 4 3 4 4 2 4 3 3 6 6 8 7 6 5 7 6 3 2 3 3 2 2 3 2 4 5 3 0 3 5 3 6 6 5 1 4 4 5 7 7 8 8 7 4 6 7 6 4 4 6 8 2
3 3 5 1 3 2 2 3 3 5 9 7 8 8 7 5 7 8 8 6 4 4 2 3 1 1 2 4 1 3 7 3 3 4 7 6 1 1 2 3 3 3 3 3 5 3 3 4 4 4 3 5 4 4
8 7 6 3 3 2 3 3 2 5 6 3 4 6 7 5 6 6 9 6 5 2 2 3 2 3 3 4 2 2 7 8 5 3 5 5 2 2 3 2 2 3 3 1 2 3 3 4 1 1 1 4 2 5
6 4 7 5 3 6 4 3 5 5 5 4 6 5 4 5 7 7 8 6 4 2 4 4 5 6 4 5 3 2 3 4 3 3 3 5 4 6 4 2 2 3 4 3 3 5 6 1 5 5 3 5 5 9
1 8 2 6 3 4 5 6 5 2 4 6 8 6 5 4 4 6 6 6 6 7 7 5 6 2 4 1 2 2 3 4 6 4 5 3 4 2 3 2 2 1 2 2 3 2 2 2 2 3 4 4 4 5
2 3 3 5 5 3 7 5 5 3 3 3 2 3 3 3 4 2 2 3 1 1 1 3 4 1 3 2 1 3 2 2 4 4 4 4 4 4 4 5 4 2 2 4 2 4 4 4 6 5 5 1 1 2
1 2 4 3 6 5 4 3 4 3 3 5 3 5 5 4 5 3 5 1 2 4 4 6 5 4 2 2 3 4 2 3 4 4 4 4 4 4 4 4 2 2 3 3 4 4 4 4 5 3 3 4 5 3
2 5 4 4 5 4 5 4 5 4 5 3 2 5 0 3 2 3 3 2 2 2 3 3 4 4 5 4 3 3 5 5 3 5 5 6 4 3 3 3 3 3 3 4 4 5 5 5 4 4 4 3 4 5
3 5 6 5 4 5 4 3 2 2 6 3 3 1 2 2 3 3 2 1 2 2 3 5 5 5 6 5 6 7 6 6 4 4 4 2 1 3 4 4 3 3 4 5 7 7 7 6 4 6 5 3 1 2
4 6 6 5 4 4 4 4 5 4 6 3 2 2 2 4 2 2 1 0 2 1 3 3 5 4 5 6 6 5 5 6 6 1 4 5 4 3 3 4 4 3 5 7 5 5 6 7 7 6 5 0 3 2
6 5 4 4 5 4 7 5 4 3 3 3 3 2 3 4 3 1 0 2 3 4 5 3 2 2 4 4 3 3 6 5 2 4 7 5 5 4 5 5 4 4 4 4 4 6 6 5 5 6 5 4 4 5
6 5 4 8 6 3 3 4 4 2 4 3 3 3 3 3 2 2 2 3 4 4 3 4 5 3 3 5 3 3 6 6 3 5 8 5 3 2 1 1 2 3 5 5 5 5 4 3 4 6 6 6 5 7
9 7 6 3 3 4 5 4 3 3 2 4 2 2 3 4 1 3 4 4 2 5 4 1 1 4 5 3 6 2 3 4 4 4 5 4 3 1 3 4 4 4 5 4 5 7 12 8 8 9 10 8 8 9
3 2 5 7 6 6 7 7 8 7 1 1 7 4 2 3 4 4 5 4 5 5 3 3 2 2 4 4 4 6 5 4 3 6 5 5 5 4 5 5 5 5 6 6 7 8 8 9 9 10 11 12 11 11
8 9 9 11 8 7 5 3 4 3 3 5 1 3 1 1 3 3 3 4 2 6 6 6 3 2 2 5 5 5 4 3 5 7 9 7 4 3 5 4 3 6 6 5 5 6 9 9 8 9 9 11 11 10
9 8 9 9 6 4 2 4 2 3 2 2 2 1 2 2 3 3 3 3 7 8 5 3 4 1 3 9 8 6 7 6 8 10 11 11 10 8 2 5 4 5 8 7 8 8 9 11 9 10 8 7 7 8
Wind_Direction
306 319 323 324 331 331 339 341 350 350 352 351 350 350 351 348 349 313 307 330 283 256 286 265 290 295 300 300 302 332 317 10 301 291 242 265 284 272 274 264 253 173 146 155 161 169 259 305 172 137 206 97 86 95
301 315 317 321 328 331 337 336 342 346 345 344 344 343 343 339 335 308 273 78 61 231 275 304 280 265 258 259 282 296 298 300 244 331 355 327 290 315 290 277 296 269 166 195 173 199 215 78 298 191 142 128 97 128
297 308 311 318 323 325 330 336 344 342 342 339 339 338 341 344 335 279 293 112 254 269 271 241 266 263 247 235 242 256 272 206 351 135 265 298 327 23 327 17 325 345 37 163 93 268 143 184 252 191 136 136 125 140
291 301 306 313 315 318 323 336 334 336 337 337 338 337 338 340 343 337 263 207 237 278 275 294 327 323 304 296 281 228 250 271 275 118 283 264 306 48 333 302 331 310 316 306 209 243 52 312 311 94 113 133 133 132
284 294 300 310 314 311 313 317 321 323 326 330 333 331 333 334 332 309 260 223 224 256 300 309 305 275 292 233 241 243 241 235 271 186 251 280 327 34 316 299 251 172 330 9 307 336 132 253 281 285 147 141 157 144
277 287 292 300 314 307 299 302 305 309 314 318 320 323 324 327 334 306 299 38 354 204 280 304 314 282 288 266 209 226 208 206 144 155 206 243 213 149 242 268 35 327 298 43 292 324 290 6 286 241 224 139 130 127
276 284 291 294 302 315 301 298 300 303 308 309 310 307 306 306 307 254 290 352 333 299 295 286 274 282 353 251 252 181 143 89 93 142 236 239 254 179 236 246 279 279 293 302 322 335 351 21 318 327 253 162 134 142
267 277 286 290 296 310 316 310 300 294 296 299 299 296 292 289 269 271 282 231 194 267 246 273 271 270 4 335 344 347 73 114 166 191 288 242 216 179 254 229 228 249 292 309 306 326 290 312 338 322 280 144 133 137
261 270 283 292 296 301 313 317 312 300 296 296 298 293 276 214 238 181 70 131 129 285 267 248 294 326 357 2 302 189 206 188 182 219 199 203 215 223 218 200 183 189 207 263 288 295 313 335 296 274 251 151 142 143
255 266 280 289 297 298 305 316 319 313 301 296 279 231 230 207 119 135 179 181 186 194 219 251 270 268 47 5 335 314 333 246 246 216 174 211 242 251 195 218 204 193 185 224 228 234 226 232 218 231 27 149 170 149
247 262 276 288 296 300 301 316 321 325 294 176 264 259 349 141 191 219 245 218 158 229 206 243 253 262 332 163 242 267 259 193 250 202 197 207 239 226 215 213 233 238 198 209 219 198 233 255 271 310 30 100 94 85
242 254 269 282 293 297 298 312 320 299 17 301 283 271 249 214 207 240 217 208 210 264 181 238 235 211 268 284 202 277 290 284 264 350 229 246 253 266 179 209 210 221 228 227 223 229 254 273 270 276 119 108 96 95
239 251 265 277 284 289 293 303 305 292 295 245 222 236 203 229 258 232 222 188 223 189 223 211 244 213 222 199 227 186 237 248 325 250 248 16 331 356 13 337 199 208 227 219 236 238 250 245 264 95 104 92 97 94
234 251 265 275 278 282 283 289 298 303 267 249 228 262 231 210 236 232 295 196 198 166 220 231 283 217 226 258 282 259 223 190 278 260 248 40 5 336 21 353 332 197 195 206 223 240 268 235 111 114 124 132 127 132
238 260 272 276 267 265 270 262 258 262 268 265 261 244 240 298 252 317 41 157 210 169 161 172 230 232 182 251 272 301 253 249 322 335 4 346 358 60 40 3 322 344 192 187 200 213 241 141 90 129 151 139 134 143
246 283 236 234 230 220 238 239 229 241 260 251 243 258 281 308 334 332 307 247 278 140 118 187 272 264 207 204 194 214 294 353 281 285 310 316 346 57 97 19 6 326 9 89 173 181 194 91 115 144 128 149 161 167
219 259 148 173 193 208 229 256 249 229 251 248 244 252 281 284 285 268 287 330 285 165 206 220 255 217 274 219 30 44 308 283 326 306 329 312 292 306 71 140 185 281 42 40 37 41 32 33 47 35 14 189 163 181
254 153 181 202 207 202 228 219 247 259 259 257 263 267 278 303 292 285 270 264 304 335 319 270 269 308 344 11 12 350 229 278 320 302 290 233 258 24 56 45 32 30 33 27 73 72 53 52 78 69 76 29 28 353
56 342 349 286 305 278 241 213 215 255 232 238 248 256 274 269 278 273 276 270 256 237 249 285 334 322 215 228 178 160 89 316 278 295 248 242 92 51 43 79 97 69 39 25 20 98 125 77 113 125 110 75 77 43
263 265 268 276 280 260 253 242 229 261 273 306 281 266 266 259 261 270 273 257 271 225 233 232 211 222 203 286 254 334 140 192 188 92 318 318 240 271 58 70 342 327 323 49 333 346 107 104 44 325 11 104 118 111
179 209 178 210 211 222 259 225 227 247 283 270 288 283 267 278 258 253 265 251 253 228 253 226 221 219 235 274 298 53 343 344 32 119 88 296 341 4 312 220 276 21 30 14 81 336 346 9 181 208 169 226 207 133
118 166 211 199 247 220 245 238 249 226 235 257 284 254 243 262 263 240 236 252 254 244 255 257 277 203 195 60 0 206 75 29 331 320 291 252 286 278 353 309 291 61 12 297 315 292 317 13 51 34 65 109 92 119
266 233 221 199 243 225 254 228 236 227 268 282 285 278 247 220 227 227 273 245 248 360 56 33 352 90 68 3 320 292 301 323 279 268 291 288 290 303 313 313 304 269 287 309 272 16 3 31 7 4 2 65 148 156
161 239 248 240 203 258 266 217 224 235 232 250 268 305 325 341 309 219 251 247 28 354 37 12 343 325 17 6 306 290 301 228 258 278 243 248 264 277 266 283 338 88 63 20 10 30 26 1 357 30 5 18 348 302
191 263 173 264 252 244 252 232 220 212 253 300 293 237 236 298 279 291 340 25 348 344 315 307 346 321 317 313 284 298 299 269 254 264 269 254 218 266 316 88 64 31 17 9 10 6 353 347 356 4 19 348 16 319
216 225 192 220 220 227 243 271 231 289 284 218 244 129 116 255 235 252 285 257 291 354 351 2 334 320 319 344 328 316 308 313 332 292 325 278 149 141 99 82 47 12 359 27 8 339 324 334 5 0 325 334 356 349
243 250 216 231 259 279 285 303 314 238 262 246 98 215 231 256 162 154 164 255 305 169 241 241 261 265 273 292 293 296 312 299 271 187 79 43 26 36 127 99 66 12 30 13 352 23 358 357 357 333 298 352 215 144
246 268 271 267 261 261 279 286 262 276 344 342 271 242 324 358 11 49 83 286 321 294 261 252 216 243 265 249 235 264 293 323 341 86 63 11 345 317 54 75 71 63 62 25 2 26 16 5 337 333 353 4 46 50
235 250 280 285 282 268 268 244 244 216 181 242 317 341 341 344 317 234 268 258 263 266 301 288 330 10 303 273 300 273 284 273 352 161 134 113 85 1 330 271 218 204 120 88 50 20 0 347 332 347 40 66 64 71
241 233 230 234 229 242 229 248 302 301 262 267 248 253 268 289 13 308 281 275 316 308 274 210 255 303 95 133 248 253 102 87 59 102 126 132 193 192 59 52 27 101 84 49 58 46 21 46 60 65 65 58 54 75
247 238 227 248 255 245 247 263 277 262 188 43 280 248 299 315 301 286 241 228 227 240 279 77 197 297 133 109 91 63 45 358 63 83 122 136 116 91 70 65 55 76 73 72 73 72 67 63 60 60 67 79 80 77
227 228 240 251 255 253 246 281 328 301 328 299 248 139 183 329 292 292 274 289 338 101 154 148 151 145 75 11 109 123 152 35 71 87 86 90 92 126 143 121 102 100 101 93 115 104 78 80 82 77 77 78 75 71
235 237 240 252 281 307 51 84 23 312 304 279 288 283 230 213 271 259 205 99 114 160 184 176 137 136 35 80 86 86 70 66 76 86 89 78 67 44 357 136 153 148 138 113 103 104 100 104 98 100 99 98 99 100